Regional Weather Roundup
Issued by NWS

Home | Current Version | Previous Version | Graphics & Text | Print | Product List | Glossary On
Versions: 1 2 3 4 5 6 7 8 9 10 11 12 13 14 15 16 17 18 19 20 21 22 23 24 25 26 27 28 29 30 31 32 33 34 35 36 37 38 39 40 41 42 43 44 45 46 47 48 49 50
000
ASUS43 KBIS 232110
RWRND

NORTH DAKOTA REGIONAL WEATHER ROUNDUP
NATIONAL WEATHER SERVICE BISMARCK ND
300 PM CST FRI FEB 23 2018

NOTE: "FAIR" INDICATES FEW OR NO CLOUDS BELOW 12,000 FEET WITH NO
SIGNIFICANT WEATHER AND/OR OBSTRUCTIONS TO VISIBILITY.


NDZ001>003-009>011-017-232200-
NORTHWEST NORTH DAKOTA

CITY           SKY/WX    TMP DP  RH WIND       PRES   REMARKS
WILLISTON      SUNNY     12   4  70 SW9       30.13F WCI   0
MINOT          SUNNY     18   8  65 SW14      30.14F WCI   4
MINOT AFB      SUNNY     17   8  66 W12       30.13F WCI   4
$$

NDZ018>021-031>035-040>046-232200-
SOUTHWEST NORTH DAKOTA

CITY           SKY/WX    TMP DP  RH WIND       PRES   REMARKS
BISMARCK       SUNNY     18   8  65 SW12      30.22F WCI   5
DICKINSON      SUNNY     17   7  64 S8        30.08F WCI   7
GARRISON         N/A     13   5  70 W6        30.15F WCI   4
HETTINGER ARPT SUNNY     13   2  61 S7        30.13F WCI   3
$$

NDZ004>008-012>016-024-026-027-054-232200-
NORTHEAST NORTH DAKOTA

CITY           SKY/WX    TMP DP  RH WIND       PRES   REMARKS
GRAND FORKS    FAIR      18   9  68 W10       30.20S WCI   6
GRND FRKS AFB  FAIR      19   8  62 NW8       30.19F WCI   9
DEVILS LAKE    FAIR      12   6  77 W16       30.17F WCI  -5
$$

NDZ022-023-025-028>030-036>039-047>053-232200-
SOUTHEAST NORTH DAKOTA

CITY           SKY/WX    TMP DP  RH WIND       PRES   REMARKS
FARGO          FAIR      15   8  73 W12       30.24S WCI   2
JAMESTOWN      SUNNY     18  10  71 W9        30.20S WCI   7
$$




USA.gov is the U.S. government's official web portal to all federal, state and local government web resources and services.